Content
SEND FEEDBACK

Daily
Averages
Monthly
Summary
United States of America

HARPERS FERRY, WEST VIRGINIA


Home > North America > United States > West Virginia
Elevation: 40 feet     Latitude: 39 19N     Longitude: 077 44W

WEATHER
 
SELECT A DAY
Number of Records: 198,676;   Date Range: 1/1/95 - 7/26/14
 
SHARE

PRINT THIS DATA

[ ← Previous Day ]
WEATHER ALMANAC - JANUARY 31, 2013
[ Next Day → ]
[ °C ]   °F
Weather ElementAverageHighLow
Temperature40.5 °F55.4 °F (12:11 am)28 °F (7:53 pm)
Dewpoint26.9 °F53.6 °F (12:11 am)9 °F (7:53 pm)
Humidity60.1 %100 % (12:18 am)41 % (2:53 pm)
Barometer29.57 in29.90 in (6:53 pm)29.21 in (1:53 am)
Wind Speed17.4 mph31.1 mph (7:53 am)
Wind Gust48.3 mph (7:53 am)
Weather ElementAverage
Visibility8.8 mi
Wind DirectionW (267 °)

Weather ElementTotal
Precipitation0.87 in
Heating Degree Days23.3 (Base 65)
Averaged from 27 records on January 31, 2013
WEATHER CONDITIONS BREAKOUT
WIND DIRECTION BREAKOUT
WEATHER BY HOUR - JANUARY 31, 2013
[ °C ]   °F
Local TimeTemperatureDewpointHumidityBarometerVisibilityWind DirectionWind SpeedGust SpeedPrecipitationEventsConditions
12:11 AM55.4 °F53.6 °F94 %29.25 in1.2 miWSW (240°)4.6 mph0.13 inRainHeavy Rain
12:18 AM53.6 °F53.6 °F100 %29.23 in2.0 miWNW (290°)5.8 mph0.14 inRainRain
12:29 AM55.4 °F53.6 °F94 %29.25 in5.0 miWNW (290°)8.1 mph0.16 inRainLight Rain
12:37 AM55.4 °F53.6 °F94 %29.27 in7.0 miWNW (290°)11.5 mph0.16 inRainLight Rain
12:53 AM55.0 °F52.0 °F89 %29.22 in6.0 miWest (270°)8.1 mph0.20 inRainLight Rain
1:53 AM54.0 °F51.1 °F90 %29.21 in9.0 miWSW (240°)5.8 mph0.04 inRainLight Rain
2:53 AM52.0 °F44.1 °F74 %29.21 in10.0 miWest (280°)17.3 mph29.9 mph0.03 inRainLight Rain
3:53 AM46.9 °F33.1 °F59 %29.27 in10.0 miWest (280°)27.6 mph42.6 mph0.01 inOvercast
4:53 AM44.1 °F28.9 °F55 %29.31 in10.0 miWest (280°)26.5 mph43.7 mphPartly Cloudy
5:53 AM41.0 °F26.1 °F55 %29.43 in10.0 miWest (280°)26.5 mph38.0 mphMostly Cloudy
6:53 AM39.0 °F21.9 °F50 %29.49 in10.0 miWest (270°)23.0 mph44.9 mphMostly Cloudy
7:53 AM37.9 °F19.0 °F47 %29.54 in10.0 miWNW (290°)31.1 mph48.3 mphClear
8:53 AM37.9 °F21.0 °F51 %29.57 in10.0 miWest (270°)25.3 mph41.4 mphClear
9:53 AM37.9 °F19.9 °F48 %29.63 in10.0 miWNW (290°)21.9 mph40.3 mph0.00 inMostly Cloudy
10:53 AM39.9 °F19.0 °F43 %29.65 in10.0 miWest (270°)26.5 mph35.7 mphScattered Clouds
11:53 AM37.0 °F21.9 °F54 %29.69 in8.0 miWest (270°)27.6 mph41.4 mphOvercast
12:53 PM36.0 °F21.9 °F57 %29.71 in10.0 miWest (270°)23.0 mph32.2 mph0.00 inMostly Cloudy
1:53 PM35.1 °F19.0 °F52 %29.72 in10.0 miWest (260°)12.7 mph32.2 mph0.00 inOvercast
2:53 PM37.0 °F15.1 °F41 %29.74 in10.0 miWest (260°)28.8 mph41.4 mphMostly Cloudy
3:53 PM33.1 °F18.0 °F54 %29.77 in10.0 miWest (260°)15.0 mph25.3 mph0.00 inMostly Cloudy
4:53 PM33.1 °F14.0 °F46 %29.81 in10.0 miWest (270°)20.7 mph40.3 mphPartly Cloudy
5:53 PM30.9 °F10.9 °F43 %29.86 in10.0 miWest (260°)27.6 mph39.1 mphMostly Cloudy
6:53 PM30.0 °F10.0 °F43 %29.90 in10.0 miWest (260°)11.5 mph19.6 mphMostly Cloudy
7:53 PM28.0 °F9.0 °F45 %29.90 in10.0 miWSW (250°)8.1 mphClear
9:53 PM28.9 °F10.9 °F47 %29.90 in10.0 miWSW (240°)10.4 mphMostly Cloudy
10:53 PM28.9 °F12.0 °F49 %29.89 in10.0 miWSW (250°)9.2 mphClear
11:53 PM28.9 °F12.0 °F49 %29.88 in10.0 miSW (230°)5.8 mphMostly Cloudy
Hourly data recorded from KMRB, located miles away from Harpers Ferry, West Virginia







STORIES FROM OUR PARTNERS